Regional Weather Roundup
Issued by NWS

Home | Current Version | Previous Version | Graphics & Text | Print | Product List | Glossary On
Versions: 1 2 3 4 5 6 7 8 9 10 11 12 13 14 15 16 17 18 19 20 21 22 23 24 25 26 27 28 29 30 31 32 33 34 35 36 37 38 39 40 41 42 43 44 45 46 47 48 49 50
000
ASUS43 KMKX 230111
RWRWI

WISCONSIN REGIONAL WEATHER ROUNDUP
NATIONAL WEATHER SERVICE MILWAUKEE/SULLIVAN WI
800 PM CDT FRI AUG 22 2014

NOTE: "FAIR" INDICATES FEW OR NO CLOUDS BELOW 12,000 FEET WITH NO
SIGNIFICANT WEATHER AND/OR OBSTRUCTIONS TO VISIBILITY.

WIZ001-002-006>008-014>016-023>028-230200-
NORTHWEST WISCONSIN

CITY           SKY/WX    TMP DP  RH WIND       PRES   REMARKS
SUPERIOR ARPT  CLOUDY    61  60  96 NE5       30.03F
ASHLAND        CLOUDY    65  61  87 NE3       30.04R
HAYWARD        CLOUDY    68  66  93 NE8       30.02S
SIREN          CLOUDY    70  66  88 N5        30.02R
RICE LAKE      CLOUDY    72  68  88 N6        30.01S
LADYSMITH      CLOUDY    73  70  89 N5        30.02R
EAU CLAIRE     CLEAR     76  71  85 N8        29.97R
MENOMONIE      PTCLDY    75  69  80 N6        29.98S
NEW RICHMOND   CLOUDY    72  69  88 N6        30.00S
OSCEOLA        CLOUDY    73  72  96 CALM      30.02S
$$

WIZ003>005-009-010-017-018-230200-
NORTH CENTRAL WISCONSIN

CITY           SKY/WX    TMP DP  RH WIND       PRES   REMARKS
WOODRUFF       MOCLDY    72  68  87 NW3       30.02R
RHINELANDER    CLOUDY    72  70  93 CALM      30.02S
EAGLE RIVER    CLOUDY    70  70 100 CALM      30.01S FOG
LAND O LAKES   CLOUDY    69  69  99 CALM      30.03S FOG
PHILLIPS       CLOUDY    70  68  95 N5        30.01S
TOMAHAWK       MOCLDY    71  69  93 CALM      30.01S FOG
MEDFORD        CLOUDY    73  71  95 NE5       30.00S FOG
MERRILL        MOCLDY    72  71  99 CALM      30.00R FOG
$$

WIZ029-030-035-036-043>047-230200-
CENTRAL WISCONSIN

CITY           SKY/WX    TMP DP  RH WIND       PRES   REMARKS
WAUSAU         MOCLDY    76  72  87 NE7       29.97R
MOSINEE        NOT AVBL
MARSHFIELD     PTCLDY    78  71  79 CALM      29.97R HX  80
STEVENS POINT  CLOUDY    78  71  80 E3        29.97S
WAUPACA        MOCLDY    76  74  92 CALM      29.96R FOG
WAUTOMA        MOCLDY    79  74  84 NE5       29.95R HX  82
WISC RAPIDS    PTCLDY    80  74  81 CALM      29.97R HX  85
CAMP DOUGLAS   CLEAR     77  77 100 CALM      29.95R
$$

WIZ011>013-019>022-031-037>040-048>050-230200-
NORTHEAST WISCONSIN

CITY           SKY/WX    TMP DP  RH WIND       PRES   REMARKS
ANTIGO         CLOUDY    71  70  97 E5        30.02R FOG
STURGEON BAY   CLOUDY    70  66  88 E6        30.00S
GREEN BAY      MOCLDY    74  70  87 E7        29.97R
MANITOWOC      FOG       69  68  96 E3        29.99S VSB 1/4
APPLETON       MOCLDY    75  68  78 E9        29.97R
CLINTONVILLE   CLOUDY    75  72  88 E5        29.97R
OSHKOSH        MOCLDY    77  72  84 E8        29.96R
$$

WIZ032>034-041-042-053>061-230200-
SOUTHWEST WISCONSIN

CITY           SKY/WX    TMP DP  RH WIND       PRES   REMARKS
LA CROSSE      PTCLDY    81  73  76 N7        29.93R HX  86
SPARTA         CLEAR     78  74  88 CALM      29.95S
VIROQUA        FAIR      78  77  96 N3        29.97R HX  80
BOSCOBEL       PTCLDY    82  76  81 CALM      29.93R HX  89
PRAIRIE DU CHI PTCLDY    82  75  79 SW3       29.92R HX  89
PLATTEVILLE    FAIR      81  77  89 CALM      29.96R HX  89
$$

WIZ056-057-062-063-064-067-068-230200-
SOUTH CENTRAL WISCONSIN

CITY           SKY/WX    TMP DP  RH WIND       PRES   REMARKS
BARABOO/DELLS  PTCLDY    81  74  79 CALM      29.94S HX  85
LONE ROCK      PTCLDY    85  76  74 CALM      29.93R HX  94
WATERTOWN      CLEAR     77  74  89 E7        29.95R
MADISON        PTCLDY    80  74  81 CALM      29.93S HX  85
MIDDLETON      FAIR      81  78  89 CALM      29.94S HX  89
MONROE         MOCLDY    79  75  89 S6        29.95S HX  82
JANESVILLE     CLEAR     82  75  78 S5        29.93  HX  89
$$

WIZ051-052-058>065-066-070>072-230200-
SOUTHEAST WISCONSIN

CITY           SKY/WX    TMP DP  RH WIND       PRES   REMARKS
MILWAUKEE      FOG       70  69  97 E7        29.97S VSB 3/4
WAUKESHA       NOT AVBL
MILWAUKEE/TIMM CLOUDY    73  66  78 E5        29.98S FOG
RACINE         CLOUDY    72  70  93 E6        29.98F FOG
BURLINGTON     MOCLDY    73  71  92 E3        29.96S
KENOSHA        MOCLDY    73  71  93 E7        29.97S FOG
FOND DU LAC    PTCLDY    76  70  82 SE8       29.96R
SHEBOYGAN      CLOUDY    69  67  93 NE5       29.99R
WEST BEND      MOCLDY    70  66  88 E5        29.97S FOG
JUNEAU         CLEAR     77  46  32 E8        29.97R
$$

LSZ147-162-230200-
LAKE SUPERIOR

STATION/POSITION TIME  TEMP    WIND        PRES    WAVE
                       AIR SEA DIR/SP/G            HT/PER
                 (UTC) (F)     (DEG/KT/KT) (MB)    (FT/S)
W MID LAKE BUOY  0050   58 59   20/  8/ 10 1016.5R   2/ 4
DEVILS ISLAND    0100   60      30/  8/  9 1017.2R
PORT WING        0000   60      40/  7/  8 1017.3R
SAXON HARBOR     0000   62        CALM     1016.9R
$$

LMZ867-665-643>646-230200-
LAKE MICHIGAN

STATION/POSITION TIME  TEMP    WIND        PRES    WAVE
                       AIR SEA DIR/SP/G            HT/PER
                 (UTC) (F)     (DEG/KT/KT) (MB)    (FT/S)
N MID LAKE BUOY  0050   68 66   80/  6/  8 1015.2S   0
NORTHPORT PIER   0000   67     100/  4/  6 1015.9R
SISTER BAY       0026   69     120/  9/ 13   N/A
KEWAUNEE LAKESHO 0000   67      40/  4/  6 1014.5R
SHEBOYGAN LAKESH 0100   67 67  100/  2/  2 1015.5R
ATWATER BUOY     0000   69      80/  4/  6 1015.8R
MILWAUKEE LAKESH 0000   70      90/  4/  5   N/A
S MID LAKE BUOY  0050   71 71   70/  2/  2 1014.8R   0
KENOSHA   LAKESH 0100   73      60/  5/  6 1013.9S
$$

TC  - TEMPERATURE IN CELSIUS
VSB - VISIBILITY IN STATUTE MILES
WCI - WIND CHILL INDEX
HX  - HEAT INDEX




USA.gov is the U.S. government's official web portal to all federal, state and local government web resources and services.